Longmont, CO (80501)

10:04 PM MDT die 29o July, anno 2015 (GMT -0600)
Northridge Elementary School | | Change Station
CLOSE
Current Station
Personal Weather Stations
Location: Longmont, CO
Elevation: 5043 ft
Nearby Weather Stations

Elev 5043 ft 40.19 °N, 105.11 °W | Updated 0 second ago

Serena
Serena
77.2 °F
Feels Like 79 °F
N
0.0
Ventus Variabilis Ventus from Inter Austrum et Eurum
Gusts 0.0 mph

Hodie
High -- | Low -- °F
--% Chance of Precip.
Yesterday
High -- | Low -- °F
Precip. -- in
5:55 AM 8:17 PM
Waxing Gibbous, 98% visible
Pressio 30.27 in
Visibilitas 10.0 milia passuum
Clouds Serena
Index Caloris 79 °F
Frigus in quo Ros apparet 58 °F
Umor 52%
Rainfall 0.00 in
Snow Depth Not available.
UV 0.0 out of 12
Pollen 6.10 out of 12
Air Quality Not available.
Flu Activity Not available.
METAR KLMO 300355Z AUTO 00000KT 10SM CLR 22/12 A3027 RMK AO2 T02240123 PWINO

More Conditions Fewer Conditions

Pressio 30.27 in
Visibilitas 10.0 milia passuum
Clouds Serena
Index Caloris 79 °F
Frigus in quo Ros apparet 58 °F
Umor 52%
Rainfall 0.00 in
Snow Depth Not available.
UV 0.0 out of 12
Pollen 6.10 out of 12
Air Quality Not available.
Flu Activity Not available.
METAR KLMO 300355Z AUTO 00000KT 10SM CLR 22/12 A3027 RMK AO2 T02240123 PWINO

More Conditions Fewer Conditions

10-Day Weather Forecast

×

Almanac

Astronomy

Jul. 29, 2015 Rise Set
Actual Time
Civil Twilight
Nautical Twilight
Astronomical Twilight
Moon
Length Of Visible Light
Length of Day
Tomorrow will be .
, % of the Moon is Illuminated

Today's Extremes

State Highs State Lows

Community

WunderPhotos

Upload Photos

1,842,293 photos uploaded!

WunderBlogs® & News

Nearby

Air Quality

  Air Quality AQ Index Pollutant
Not available.

Snow Depth

Station Depth Elevation

Earthquake Activity

City Distance Mag. Time & Date
Minimum magnitude displayed is 2.5.

Coastal Water Temperatures

Locus Calor

Stations

Nearby Weather Stations

Station Location Temp Frigus Venti Frigus in quo Ros apparet Umor Ventus Precip. Elev Renovata Type